DW8587 Weather Reports


time (UTC)temp
C
wind
direction
speed
KPH
gust
KPH
rain 1hr
cm
rain 24hr
cm
rain mn
cm
humidity
%
barometer
mb
20260903160045 32 302 3.2 9.7 0.00 0.00 0.00 41 1016.1
20260903154545 32 275 3.2 9.7 0.00 0.00 0.00 38 1016.2
20260903153043 32 308 4.8 12.9 0.00 0.00 0.00 39 1016.1
20260903151546 32 301 3.2 11.3 0.00 0.00 0.00 40 1016.1
20260903150042 31 323 1.6 12.9 0.00 0.00 0.00 43 1016.3
20260903144641 32 310 4.8 14.5 0.00 0.00 0.00 43 1016.3
20260903143043 32 296 4.8 9.7 0.00 0.00 0.00 41 1016.3
20260903141537 32 291 1.6 12.9 0.00 0.00 0.00 41 1016.5
20260903140036 31 314 4.8 11.3 0.00 0.00 0.00 39 1016.7
20260903134542 31 269 1.6 6.4 0.00 0.00 0.00 42 1016.8
20260903133041 31 297 3.2 8.0 0.00 0.00 0.00 43 1016.9
20260903131538 31 279 3.2 11.3 0.00 0.00 0.00 45 1017.0
20260903130032 31 246 1.6 9.7 0.00 0.00 0.00 46 1017.2
20260903124548 31 61 3.2 14.5 0.00 0.00 0.00 46 1017.4
20260903123028 31 323 1.6 9.7 0.00 0.00 0.00 46 1017.4
20260903121540 30 301 1.6 12.9 0.00 0.00 0.00 47 1017.6
20260903120025 30 52 1.6 9.7 0.00 0.00 0.00 47 1017.6
20260903114524 30 148 3.2 12.9 0.00 0.00 0.00 48 1017.8
20260903113022 29 140 4.8 11.3 0.00 0.00 0.00 47 1017.8
20260903111520 30 257 4.8 11.3 0.00 0.00 0.00 47 1017.8
20260903110018 29 206 3.2 8.0 0.00 0.00 0.00 46 1018.0
20260903104524 28 140 4.8 11.3 0.00 0.00 0.00 45 1018.1
20260903103013 28 86 3.2 11.3 0.00 0.00 0.00 50 1018.4
20260903101518 28 107 4.8 9.7 0.00 0.00 0.00 50 1018.6
20260903100019 28 87 3.2 6.4 0.00 0.00 0.00 51 1018.8
20260903094505 28 173 0.0 9.7 0.00 0.00 0.00 54 1018.7
20260903093002 28 279 1.6 8.0 0.00 0.00 0.00 53 1018.7
20260903091605 27 39 4.8 9.7 0.00 0.00 0.00 54 1018.7
20260903090054 27 112 3.2 9.7 0.00 0.00 0.00 55 1018.8
20260903084550 27 115 4.8 8.0 0.00 0.00 0.00 57 1018.8
20260903083047 26 351 1.6 11.3 0.00 0.00 0.00 57 1018.6
20260903081547 26 52 6.4 9.7 0.00 0.00 0.00 55 1018.8
20260903080039 26 36 4.8 9.7 0.00 0.00 0.00 58 1018.7
20260903074534 26 37 6.4 9.7 0.00 0.00 0.00 56 1018.6
20260903073042 25 349 3.2 8.0 0.00 0.00 0.00 59 1018.4
20260903071528 24 5 3.2 6.4 0.00 0.00 0.00 62 1018.5
20260903070021 23 46 3.2 6.4 0.00 0.00 0.00 65 1018.4
20260903064516 22 49 4.8 8.0 0.00 0.00 0.00 66 1018.5
20260903063012 21 345 3.2 8.0 0.00 0.00 0.00 69 1018.5
20260903061507 21 355 4.8 12.9 0.00 0.00 0.00 72 1018.5
20260903060003 20 13 4.8 8.0 0.00 0.00 0.00 74 1018.3
20260903054558 19 22 4.8 8.0 0.00 0.00 0.00 76 1018.1
20260903053057 18 37 4.8 8.0 0.00 0.00 0.00 78 1018.0
20260903051551 18 41 8.0 11.3 0.00 0.00 0.00 79 1017.9
20260903050049 18 41 6.4 12.9 0.00 0.00 0.00 80 1017.7
20260903044548 18 46 4.8 6.4 0.00 0.00 0.00 80 1017.5
20260903043059 18 342 3.2 6.4 0.00 0.00 0.00 80 1017.3
20260903041542 18 345 3.2 4.8 0.00 0.00 0.00 79 1017.3
20260903040044 19 35 6.4 9.7 0.00 0.00 0.00 78 1017.2
20260903034540 19 28 3.2 8.0 0.00 0.00 0.00 78 1017.1
20260903033039 19 32 4.8 8.0 0.00 0.00 0.00 78 1017.1
20260903031545 19 34 6.4 12.9 0.00 0.00 0.00 79 1017.0
20260903030036 19 26 1.6 6.4 0.00 0.00 0.00 80 1016.8
20260903024536 18 37 1.6 4.8 0.00 0.00 0.00 81 1016.9
20260903023036 19 37 3.2 6.4 0.00 0.00 0.00 82 1017.0
20260903021532 19 37 0.0 3.2 0.00 0.00 0.00 80 1017.0
20260903020038 20 37 0.0 1.6 0.00 0.00 0.00 80 1017.0
20260903014527 20 37 0.0 3.2 0.00 0.00 0.00 79 1017.0
20260903013027 20 37 1.6 4.8 0.00 0.00 0.00 79 1017.0
20260903011526 20 37 1.6 4.8 0.00 0.00 0.00 80 1017.0
20260903010024 20 37 1.6 4.8 0.00 0.00 0.00 79 1017.0
20260903004522 20 37 0.0 4.8 0.00 0.00 0.00 79 1016.9
20260903003020 21 37 3.2 6.4 0.00 0.00 0.00 78 1017.0
20260903001518 21 32 4.8 8.0 0.00 0.00 0.00 76 1016.9
20260903000016 21 344 4.8 8.0 0.00 0.00 0.00 76 1016.8
20260902234513 21 39 6.4 11.3 0.00 0.00 0.00 75 1016.7
20260902233013 22 360 4.8 8.0 0.00 0.00 0.00 75 1016.7
20260902231512 22 338 1.6 4.8 0.00 0.00 0.00 75 1016.7
20260902230015 22 355 3.2 6.4 0.00 0.00 0.00 76 1016.7
20260902224509 22 40 6.4 8.0 0.00 0.00 0.00 76 1016.7
20260902223008 22 38 4.8 8.0 0.00 0.00 0.00 77 1016.6
20260902221507 21 355 3.2 6.4 0.00 0.00 0.00 79 1016.6
20260902220004 21 22 6.4 9.7 0.00 0.00 0.00 80 1016.6
20260902214504 22 37 4.8 8.0 0.00 0.00 0.00 79 1016.5
20260902213003 22 338 1.6 6.4 0.00 0.00 0.00 80 1016.5
20260902211503 22 36 3.2 14.5 0.00 0.00 0.00 79 1016.4
20260902210003 22 34 4.8 16.1 0.00 0.00 0.00 80 1016.2
20260902204501 22 37 8.0 14.5 0.00 0.00 0.00 80 1016.3
20260902203002 22 40 6.4 8.0 0.00 0.00 0.00 79 1016.1
20260902201502 22 39 6.4 11.3 0.00 0.00 0.00 79 1016.0
20260902200103 22 38 6.4 9.7 0.00 0.00 0.00 78 1016.0
20260902194602 23 44 3.2 8.0 0.00 0.00 0.00 77 1015.8
20260902193100 23 32 3.2 4.8 0.00 0.00 0.00 76 1015.9
20260902191600 24 40 3.2 6.4 0.00 0.00 0.00 74 1015.8
20260902184559 25 290 0.0 3.2 0.00 0.00 0.00 68 1015.3
20260902183110 26 290 0.0 1.6 0.00 0.00 0.00 66 1015.3
20260902181612 27 290 0.0 1.6 0.00 0.00 0.00 64 1015.3
20260902180057 27 290 0.0 3.2 0.00 0.00 0.00 62 1015.1
20260902174559 27 290 0.0 4.8 0.00 0.00 0.00 60 1015.0
20260902173114 28 294 0.0 3.2 0.00 0.00 0.00 60 1015.0
20260902171558 28 336 0.0 6.4 0.00 0.00 0.00 58 1015.0
20260902170056 29 248 3.2 8.0 0.00 0.00 0.00 56 1015.0
20260902164602 29 309 1.6 8.0 0.00 0.00 0.00 54 1014.9
20260902163055 30 310 1.6 8.0 0.00 0.00 0.00 55 1014.9
20260902161554 30 350 4.8 9.7 0.00 0.00 0.00 52 1014.9